Location: Wavehorne
(51.0500°N, 0.8333°E)
Time: 01:35:40
(UTC+00:00)

USA 305 - Pass Details

Date: 20 June 2021
Orbit: 558 x 580 km, 54.0° (Epoch: 13 July)

Event Time Altitude Azimuth Distance (km) Brightness Sun altitude
Exits shadow 01:10:12 18° 163° (SSE) 1,401 4.4 -13.8°
Maximum altitude 01:11:36 21° 135° (SE) 1,273 4.4 -13.8°
Drops below altitude 10° 01:14:47 10° 86° (E) 1,851 5.8 -13.6°
Sets 01:17:26 0° 70° (ENE) 2,753 7.0 -13.5°
